Tracking 23726 objects as of 16-Oct-2021
HD Live streaming from Space Station
objects crossing your sky now

SL-8 R/B

Track SL-8 R/B now!
10-day predictions


NORAD ID: 12983
Int'l Code: 1981-116J
Perigee: 1,487.5 km
Apogee: 1,670.4 km
Inclination: 74.0 °
Period: 117.6 minutes
Semi major axis: 7949 km
RCS: 5.9807 m2 (large)
Launch date: November 28, 1981
Source: Commonwealth of Independent States (former USSR) (CIS)
Launch site: PLESETSK MISSILE AND SPACE COMPLEX (PKMTR)

Note: This is a ROCKET BODY
aabbcc
Your satellite tracking list
Your tracking list is empty




NASA's NSSDC Master Catalog

Two Line Element Set (TLE):
1 12983U 81116J   21288.74710628 -.00000020  00000-0 -42795-4 0  9991
2 12983  73.9854 196.5009 0115060 327.3152  91.8653 12.24777575517627
Source of the keplerian elements: AFSPC